AMAZONAS 4A

Last updated on Tue Oct 08 2024 00:02:39 GMT+0000 (Coordinated Universal Time)

1 39616U 14011A 24281.37549336 -.00000241 00000+0 00000+0 0 9995 2 39616 0.0524 166.6265 0004199 38.9956 232.1048 1.00270679 38501
UTC large
Height (km)
Speed (km/s)
/
Latitude / Longitude
Inclination (degrees)
Orbital Period (minutes)
Azimuth
Elevation
Range (km)
Doppler Factor

Next 0 passes for location: London (51.5072 / 0.1276)

Sorry there are no passes over London.